Regional Weather Roundup
Issued by NWS

Home | Current Version | Previous Version | Text Only | Print | Product List | Glossary Off
Versions: 1 2 3 4 5 6 7 8 9 10 11 12 13 14 15 16 17 18 19 20 21 22 23 24 25 26 27

000
ASUS45 KCYS 271410
RWRWY

WYOMING REGIONAL WEATHER ROUNDUP
NATIONAL WEATHER SERVICE CHEYENNE WY
800 AM MDT WED JUL 27 2016

NOTE:  "FAIR" INDICATES FEW OR NO CLOUDS BELOW 12,000 FEET
WITH NO SIGNIFICANT WEATHER AND/OR OBSTRUCTIONS TO VISIBILITY.

WYZ001-271500-
YELLOWSTONE NATIONAL PARK

CITY           SKY/WX    TMP DP  RH WIND       PRES   REMARKS
LK YELLOWSTONE   N/A     49  40  71 CALM      30.41R
W YELLOWSTONE  NOT AVBL

$$
WYZ002>013-054>058-071-098>099-271500-
NORTHERN WYOMING

CITY           SKY/WX    TMP DP  RH WIND       PRES   REMARKS
JACKSON        SUNNY     52  37  58 CALM      30.32R
CODY           FAIR      66  45  45 SW6       30.21F
GREYBULL       FAIR      68  49  50 MISG      30.13R
WORLAND        FAIR      67  48  50 VRB3      30.16R
SHERIDAN       FAIR      70  52  52 N3        30.14S
BUFFALO        FAIR      69  51  52 CALM      30.20S
GILLETTE       FAIR      67  53  61 CALM      30.16R
HULETT         RAIN      63  59  88 E16G22    30.12F
NEWCASTLE      FAIR      61  55  82 SE14G22   30.15R

$$
WYZ014>020-022>026-101>103-271500-
CENTRAL WYOMING

CITY           SKY/WX    TMP DP  RH WIND       PRES   REMARKS
BIG PINEY      PTSUNNY   50  32  50 SW3       30.34R
PINEDALE       FAIR      50  36  57 NW6       30.34S HAZE
DUBOIS         HAZE      52  34  50 NW10      30.35R VSB 1/2
LANDER         FAIR      65  46  50 CALM      30.23R
RIVERTON       FAIR      69  47  45 NE6       30.23R
CASPER         FAIR      66  54  65 E7        30.21S
DOUGLAS          N/A    N/A N/A N/A MISG      30.23R

$$
WYZ021-027>030-104>119-271500-
SOUTHERN WYOMING

CITY           SKY/WX    TMP DP  RH WIND       PRES   REMARKS
EVANSTON       FAIR      62  27  26 S7        30.34R
KEMMERER         N/A     57  32  38 N8        30.35R
FORT BRIDGER   FAIR      71  26  18 CALM      30.34S
ROCK SPRINGS   FAIR      63  35  35 N6        30.30R
DIXON          FAIR      58  42  54 SE5       30.32S
RAWLINS        FAIR      65  38  36 E9        30.30R
SARATOGA       FAIR      64  37  36 SE15      30.31R
LARAMIE        FAIR      61  37  41 VRB3      30.33R
CHEYENNE       FAIR      61  52  72 N8G18     30.30R
TORRINGTON     FAIR      63  61  93 E10       30.19F
PINE BLUFFS    FAIR      61  54  77 E13G21    30.20F

$$




USA.gov is the U.S. government's official web portal to all federal, state and local government web resources and services.